When you browse on this site, cookies collect data to enhance your experience and personalize the content and advertising you see.
Visit our Privacy Policy to learn more. By continuing to use the site, you agree to this use of cookies and data.
  • In Deutschland
  • Länderverzeichnis
  • Für 7 Tage
  • Wassertemperatur
  • Satellitenkarten
  • Wetterkarte
  • Widgets
  • user-avatar
    Anmelden

    Stündliche Wetter Iraklio

    Heute, 17 November, Samstag

    Zeit Temperatur Niederschläge Wind Luftdruck Luftfeuchtigkeit
    00:00 +14°C° 0.8 mm 5 m/S 757 mmHg 82%
    01:00 +14°C° 0.8 mm 6 m/S 757 mmHg 85%
    02:00 +14°C° 0.8 mm 6 m/S 757 mmHg 87%
    03:00 +15°C° 1.3 mm 6 m/S 756 mmHg 88%
    04:00 +15°C° 1.3 mm 6 m/S 756 mmHg 89%
    05:00 +15°C° 1.3 mm 6 m/S 756 mmHg 89%
    06:00 +16°C° 0.6 mm 6 m/S 756 mmHg 85%
    07:00 +17°C° 0.6 mm 6 m/S 755 mmHg 80%
    08:00 +19°C° 0.6 mm 6 m/S 755 mmHg 76%
    09:00 +19°C° 0.3 mm 6 m/S 755 mmHg 74%
    10:00 +20°C° 0.3 mm 7 m/S 755 mmHg 73%
    11:00 +20°C° 0.3 mm 7 m/S 755 mmHg 72%
    12:00 +20°C° 0.2 mm 6 m/S 755 mmHg 71%
    13:00 +21°C° 0.2 mm 6 m/S 755 mmHg 71%
    14:00 +21°C° 0.2 mm 5 m/S 755 mmHg 70%
    15:00 +20°C° 0.1 mm 5 m/S 755 mmHg 71%
    16:00 +20°C° 0.1 mm 5 m/S 755 mmHg 72%
    17:00 +20°C° 0.1 mm 4 m/S 755 mmHg 72%
    18:00 +20°C° 0.1 mm 4 m/S 755 mmHg 74%
    19:00 +19°C° 0.1 mm 4 m/S 756 mmHg 76%
    20:00 +19°C° 0.1 mm 4 m/S 756 mmHg 78%
    21:00 +19°C° 0.1 mm 4 m/S 756 mmHg 78%
    22:00 +19°C° 0.1 mm 4 m/S 756 mmHg 78%
    23:00 +19°C° 0.1 mm 4 m/S 756 mmHg 78%

    Morgen, 18 November, Sonntag

    Zeit Temperatur Niederschläge Wind Luftdruck Luftfeuchtigkeit
    00:00 +19°C° 0 mm 4 m/S 756 mmHg 77%
    01:00 +19°C° 0 mm 4 m/S 756 mmHg 77%
    02:00 +19°C° 0 mm 4 m/S 756 mmHg 76%
    03:00 +19°C° 0.1 mm 4 m/S 756 mmHg 75%
    04:00 +19°C° 0.1 mm 4 m/S 755 mmHg 75%
    05:00 +19°C° 0.1 mm 4 m/S 755 mmHg 74%
    06:00 +19°C° 1 mm 4 m/S 755 mmHg 74%
    07:00 +19°C° 1 mm 3 m/S 755 mmHg 74%
    08:00 +19°C° 1 mm 2 m/S 756 mmHg 74%
    09:00 +19°C° 1.1 mm 2 m/S 755 mmHg 75%
    10:00 +18°C° 1.1 mm 2 m/S 755 mmHg 76%
    11:00 +18°C° 1.1 mm 2 m/S 755 mmHg 77%
    12:00 +18°C° 0.6 mm 3 m/S 755 mmHg 77%
    13:00 +18°C° 0.6 mm 4 m/S 754 mmHg 76%
    14:00 +18°C° 0.6 mm 4 m/S 754 mmHg 75%
    15:00 +18°C° 0.1 mm 4 m/S 753 mmHg 76%
    16:00 +18°C° 0.1 mm 3 m/S 753 mmHg 77%
    17:00 +18°C° 0.1 mm 3 m/S 753 mmHg 78%
    18:00 +17°C° 0 mm 3 m/S 753 mmHg 79%
    19:00 +17°C° 0 mm 4 m/S 753 mmHg 80%
    20:00 +17°C° 0 mm 4 m/S 753 mmHg 80%
    21:00 +17°C° 0.1 mm 4 m/S 753 mmHg 80%
    22:00 +16°C° 0.1 mm 5 m/S 752 mmHg 79%
    23:00 +17°C° 0.1 mm 5 m/S 752 mmHg 78%

    übermorgen, 19 November, Montag

    Zeit Temperatur Niederschläge Wind Luftdruck Luftfeuchtigkeit
    00:00 +17°C° 0 mm 5 m/S 752 mmHg 78%
    01:00 +17°C° 0 mm 5 m/S 752 mmHg 77%
    02:00 +17°C° 0 mm 5 m/S 751 mmHg 76%
    03:00 +17°C° 0 mm 5 m/S 751 mmHg 77%
    04:00 +17°C° 0 mm 4 m/S 751 mmHg 78%
    05:00 +17°C° 0 mm 4 m/S 751 mmHg 78%
    06:00 +18°C° 0 mm 4 m/S 751 mmHg 78%
    07:00 +18°C° 0 mm 4 m/S 751 mmHg 78%
    08:00 +18°C° 0 mm 3 m/S 752 mmHg 77%
    09:00 +19°C° 0 mm 3 m/S 752 mmHg 76%
    10:00 +20°C° 0 mm 3 m/S 752 mmHg 74%
    11:00 +21°C° 0 mm 3 m/S 753 mmHg 72%
    12:00 +21°C° 0 mm 3 m/S 753 mmHg 72%
    13:00 +21°C° 0 mm 2 m/S 753 mmHg 71%
    14:00 +21°C° 0 mm 2 m/S 752 mmHg 70%
    15:00 +21°C° 0 mm 2 m/S 753 mmHg 72%
    16:00 +20°C° 0 mm 2 m/S 753 mmHg 74%
    17:00 +21°C° 0 mm 1 m/S 753 mmHg 77%
    18:00 +21°C° 0 mm 1 m/S 753 mmHg 78%
    19:00 +20°C° 0 mm 1 m/S 753 mmHg 80%
    20:00 +20°C° 0 mm 1 m/S 754 mmHg 81%
    21:00 +20°C° 0 mm 1 m/S 754 mmHg 82%
    22:00 +19°C° 0 mm 1 m/S 755 mmHg 83%
    23:00 +18°C° 0 mm 2 m/S 755 mmHg 84%

    20 November, Dienstag

    Zeit Temperatur Niederschläge Wind Luftdruck Luftfeuchtigkeit
    00:00 +18°C° 0 mm 2 m/S 755 mmHg 85%
    01:00 +18°C° 0 mm 2 m/S 755 mmHg 87%
    02:00 +17°C° 0 mm 2 m/S 755 mmHg 89%
    03:00 +17°C° 0 mm 3 m/S 755 mmHg 90%
    04:00 +17°C° 0 mm 3 m/S 755 mmHg 92%
    05:00 +17°C° 0 mm 3 m/S 755 mmHg 93%
    06:00 +18°C° 0 mm 3 m/S 755 mmHg 92%
    07:00 +18°C° 0 mm 3 m/S 755 mmHg 90%
    08:00 +18°C° 0 mm 4 m/S 755 mmHg 88%
    09:00 +19°C° 0 mm 4 m/S 756 mmHg 79%
    10:00 +20°C° 0 mm 4 m/S 756 mmHg 71%
    11:00 +22°C° 0 mm 4 m/S 756 mmHg 63%
    12:00 +22°C° 0 mm 4 m/S 756 mmHg 60%
    13:00 +22°C° 0 mm 4 m/S 755 mmHg 57%
    14:00 +23°C° 0 mm 4 m/S 755 mmHg 53%
    15:00 +22°C° 0 mm 4 m/S 755 mmHg 60%
    16:00 +22°C° 0 mm 4 m/S 755 mmHg 66%
    17:00 +21°C° 0 mm 4 m/S 755 mmHg 72%
    18:00 +21°C° 0 mm 5 m/S 755 mmHg 73%
    19:00 +20°C° 0 mm 5 m/S 755 mmHg 75%
    20:00 +20°C° 0 mm 6 m/S 755 mmHg 77%
    21:00 +20°C° 0 mm 6 m/S 755 mmHg 78%
    22:00 +20°C° 0 mm 6 m/S 755 mmHg 80%
    23:00 +20°C° 0 mm 6 m/S 755 mmHg 81%

    21 November, Mittwoch

    Zeit Temperatur Niederschläge Wind Luftdruck Luftfeuchtigkeit
    00:00 +20°C° 0 mm 5 m/S 755 mmHg 82%
    01:00 +20°C° 0 mm 5 m/S 755 mmHg 84%
    02:00 +20°C° 0 mm 4 m/S 755 mmHg 86%
    03:00 +20°C° 0 mm 4 m/S 755 mmHg 83%
    04:00 +20°C° 0 mm 3 m/S 755 mmHg 81%
    05:00 +20°C° 0 mm 3 m/S 755 mmHg 79%
    06:00 +20°C° 0 mm 3 m/S 755 mmHg 77%
    07:00 +20°C° 0 mm 3 m/S 755 mmHg 76%
    08:00 +20°C° 0 mm 3 m/S 755 mmHg 74%
    09:00 +21°C° 0 mm 3 m/S 755 mmHg 64%
    10:00 +24°C° 0 mm 3 m/S 756 mmHg 54%
    11:00 +25°C° 0 mm 3 m/S 756 mmHg 44%
    12:00 +25°C° 0 mm 3 m/S 756 mmHg 44%
    13:00 +25°C° 0 mm 3 m/S 755 mmHg 44%
    14:00 +25°C° 0 mm 4 m/S 755 mmHg 44%
    15:00 +23°C° 0 mm 4 m/S 755 mmHg 48%
    16:00 +22°C° 0 mm 4 m/S 755 mmHg 51%
    17:00 +21°C° 0 mm 4 m/S 755 mmHg 55%
    18:00 +21°C° 0 mm 4 m/S 756 mmHg 54%
    19:00 +20°C° 0 mm 3 m/S 756 mmHg 54%
    20:00 +20°C° 0 mm 3 m/S 756 mmHg 53%
    21:00 +20°C° 0 mm 3 m/S 757 mmHg 54%
    22:00 +19°C° 0 mm 4 m/S 757 mmHg 54%
    23:00 +19°C° 0 mm 4 m/S 757 mmHg 55%

    22 November, Donnerstag

    Zeit Temperatur Niederschläge Wind Luftdruck Luftfeuchtigkeit
    00:00 +19°C° 0 mm 4 m/S 757 mmHg 56%
    01:00 +19°C° 0 mm 4 m/S 756 mmHg 57%
    02:00 +18°C° 0 mm 4 m/S 756 mmHg 58%
    03:00 +18°C° 0 mm 4 m/S 756 mmHg 60%
    04:00 +18°C° 0 mm 4 m/S 756 mmHg 62%
    05:00 +18°C° 0 mm 4 m/S 756 mmHg 63%
    06:00 +17°C° 0 mm 5 m/S 756 mmHg 65%
    07:00 +17°C° 0 mm 5 m/S 757 mmHg 66%
    08:00 +17°C° 0 mm 5 m/S 757 mmHg 68%
    09:00 +19°C° 0 mm 5 m/S 757 mmHg 63%
    10:00 +21°C° 0 mm 5 m/S 757 mmHg 58%
    11:00 +22°C° 0 mm 5 m/S 757 mmHg 53%
    12:00 +22°C° 0 mm 6 m/S 757 mmHg 51%
    13:00 +23°C° 0 mm 6 m/S 757 mmHg 48%
    14:00 +23°C° 0 mm 6 m/S 757 mmHg 45%
    15:00 +23°C° 0 mm 6 m/S 757 mmHg 50%
    16:00 +22°C° 0 mm 6 m/S 757 mmHg 54%
    17:00 +21°C° 0 mm 6 m/S 757 mmHg 58%
    18:00 +20°C° 0 mm 6 m/S 757 mmHg 61%
    19:00 +20°C° 0 mm 6 m/S 757 mmHg 64%
    20:00 +19°C° 0 mm 6 m/S 757 mmHg 67%
    21:00 +19°C° 0 mm 5 m/S 757 mmHg 68%
    22:00 +17°C° 0 mm 5 m/S 757 mmHg 69%
    23:00 +17°C° 0 mm 5 m/S 757 mmHg 69%
    Mehr zeigen